RH
56 57 59 62 62 61 60 61 57 50 48 46 47 51 52 50 47 45 45 45 42 37 27 24 30 29 34 44 52 49 61 87 94 90 99 98 100 94 86 81 82 75 69
64 65 69 75 79 80 78 78 82 87 84 75 69 67 60 54 55 56 54 49 51 50 43 36 33 30 28 30 35 40 44 50 72 92 99 100 100 97 96 88 86 80 74
70 74 73 78 80 82 82 82 84 88 91 84 82 75 72 74 70 66 66 64 62 62 55 44 36 35 41 48 42 37 42 41 41 50 76 94 98 95 88 93 84 80 76
67 74 74 71 75 75 74 72 74 78 84 91 89 86 79 76 73 71 72 73 72 68 64 62 55 47 43 39 49 56 46 48 55 41 48 72 78 88 90 85 88 84 77
74 75 72 63 57 64 72 77 78 81 81 82 90 86 82 81 81 80 78 73 70 67 67 65 62 56 54 50 64 69 67 63 78 75 57 56 73 84 82 74 74 74 75
74 66 58 55 54 56 71 87 87 87 90 82 85 84 78 82 88 88 88 86 80 75 71 69 65 60 53 56 53 54 76 74 68 68 76 78 86 99 95 86 80 73 69
71 61 58 60 49 41 46 55 63 83 88 91 86 93 90 80 77 70 64 60 64 80 80 74 70 64 60 52 50 54 55 68 77 74 70 66 76 81 76 77 83 86 76
64 62 51 46 39 31 22 22 42 55 79 86 86 88 94 92 84 70 63 68 66 69 80 84 80 70 64 62 63 60 59 59 66 70 72 69 68 78 86 86 80 93 88
59 56 49 43 41 32 17 15 17 24 31 42 60 75 86 88 93 87 69 74 72 72 72 77 82 76 73 68 73 67 66 66 60 69 69 73 78 75 82 82 89 87 94
58 58 60 56 50 39 22 14 14 20 25 23 28 66 78 79 91 99 77 77 78 64 62 73 86 82 80 78 80 81 72 71 64 60 71 75 75 76 81 84 89 95 93
56 59 62 57 53 40 16 13 18 18 18 26 78 93 96 96 91 100 84 75 79 72 66 73 84 84 82 86 88 82 78 77 74 68 73 79 72 68 72 69 76 92 99
54 63 68 61 50 34 14 14 19 18 19 30 98 99 99 100 98 97 86 77 75 76 77 78 82 85 83 78 86 82 78 74 75 76 75 70 72 74 74 72 72 73 86
57 64 63 58 44 35 13 14 22 18 22 47 99 100 100 100 96 82 81 79 79 80 77 81 81 83 76 77 77 73 71 76 76 76 70 79 73 72 70 77 82 75 74
59 61 61 56 42 33 14 17 20 16 17 43 98 98 100 99 92 78 73 73 74 80 72 83 79 80 66 76 77 71 65 68 68 65 70 67 68 74 70 70 90 94 98
54 58 55 48 39 30 11 15 19 17 18 32 93 98 100 100 94 94 93 76 78 85 77 82 85 76 81 83 70 71 72 71 70 67 66 74 76 72 77 84 87 93 98
54 56 51 48 41 34 12 15 18 18 21 21 83 98 98 99 100 97 100 95 97 97 90 92 92 77 74 70 67 61 59 61 62 75 77 77 78 77 81 84 85 86 92
53 51 49 48 39 34 15 13 16 19 22 21 22 87 97 99 99 100 99 100 100 99 96 85 84 87 92 87 75 72 74 79 69 73 77 77 79 88 87 88 93 95 91
52 49 51 51 44 35 21 11 14 18 21 19 21 22 70 94 98 98 99 100 100 100 99 99 100 100 93 86 87 87 88 86 81 81 81 80 86 89 86 89 91 84 96
49 50 51 55 53 40 31 14 15 16 18 17 19 21 22 29 77 96 94 96 100 98 97 97 100 99 99 91 84 83 82 86 88 90 97 99 98 94 88 100 100 98 100
53 56 58 59 58 52 42 18 16 17 18 18 20 21 23 25 24 31 57 86 94 98 99 99 99 98 100 100 91 86 85 99 100 100 99 95 99 99 99 100 100 94 100
55 59 60 60 61 59 48 35 17 19 20 20 22 23 23 24 27 29 33 36 41 48 52 66 90 98 100 99 100 100 100 100 100 100 100 100 100 100 100 100 100 99 100
50 57 62 63 64 62 58 46 27 15 17 19 23 26 24 23 24 28 32 38 39 39 39 39 40 53 89 98 99 100 100 100 100 100 100 100 100 100 100 100 100 98 97
41 50 60 65 68 65 60 54 42 21 19 21 23 24 25 26 26 27 29 32 40 39 38 37 38 39 43 64 81 82 86 92 97 94 92 68 57 64 68 74 66 52 36
38 44 56 64 67 72 69 63 55 39 19 18 20 21 23 25 28 29 28 29 31 36 41 42 41 39 41 45 46 47 50 49 45 40 36 36 35 33 31 33 32 32 32
34 42 50 57 61 76 76 71 67 56 35 18 19 21 25 29 32 32 30 29 30 32 36 41 46 48 48 53 39 39 37 35 37 38 36 38 38 37 38 38 40 40 42
30 34 36 43 49 70 77 80 76 70 55 32 20 20 21 24 26 29 32 34 34 34 35 35 36 42 42 58 44 34 35 37 40 42 37 37 38 40 44 48 49 49 50
Wind_Speed
20 24 28 26 25 23 24 26 30 34 38 42 45 45 45 44 44 42 40 39 40 41 43 45 44 46 45 43 40 37 37 38 38 39 40 41 40 40 36 32 33 33 32
22 27 27 23 21 21 21 21 23 24 25 30 35 40 44 48 48 44 44 41 39 40 42 45 47 47 47 47 47 44 41 40 38 36 31 25 38 42 40 41 37 37 34
22 24 26 25 25 24 23 24 25 24 23 21 24 27 31 35 38 38 39 37 35 35 36 39 42 46 48 45 46 47 46 45 43 40 35 17 14 23 40 44 40 41 39
16 20 24 26 27 26 27 27 28 28 24 22 24 24 26 28 29 31 33 34 32 32 33 35 36 38 41 46 46 45 47 44 45 45 42 41 29 15 14 33 43 41 41
13 18 21 23 24 26 27 29 28 24 23 20 23 26 27 26 26 28 30 31 31 30 31 33 36 39 41 44 42 42 44 45 44 43 42 41 44 42 31 23 25 33 42
12 16 20 25 27 28 30 31 35 29 22 19 20 22 26 27 30 31 33 32 31 31 32 30 31 36 41 43 44 46 41 44 46 44 43 41 36 37 38 35 32 32 33
14 18 22 26 29 30 30 30 31 30 28 25 20 20 23 28 31 30 32 33 33 34 32 30 31 32 34 38 42 45 45 45 44 43 44 45 45 43 37 41 39 35 36
16 18 23 25 27 29 30 31 30 30 30 29 27 24 24 26 30 29 28 31 32 31 29 30 30 31 32 34 37 40 42 44 43 45 44 43 44 44 43 42 41 36 36
17 19 22 24 27 29 30 30 30 30 28 28 28 28 26 29 31 30 27 25 27 29 29 29 30 30 31 31 36 38 40 40 43 43 44 41 40 40 43 43 44 42 30
19 20 21 23 25 27 28 29 29 31 32 32 31 33 36 34 27 24 25 22 22 24 26 27 27 28 28 30 35 38 37 38 39 41 40 40 40 38 38 38 39 41 42
21 21 21 23 25 27 29 30 27 30 32 32 35 35 32 26 19 16 20 19 18 19 23 24 25 27 31 30 32 36 36 36 36 38 39 39 39 38 37 36 35 34 37
19 19 20 23 25 27 29 30 27 28 30 31 34 30 26 19 9 10 14 16 20 20 20 21 22 23 27 30 30 33 32 35 35 36 35 37 34 36 36 36 36 33 35
18 18 19 21 24 25 27 29 28 29 28 28 32 28 25 17 5 7 12 15 17 17 15 17 20 22 24 28 24 28 30 31 32 32 33 33 32 33 34 36 37 37 37
18 18 18 20 23 24 26 27 27 28 28 27 29 27 23 16 7 8 11 13 15 15 12 12 15 17 15 16 16 21 25 27 28 28 29 28 28 28 29 31 31 33 33
18 17 18 20 21 22 23 24 25 25 26 25 27 26 22 17 13 10 10 11 14 12 10 11 13 15 17 21 23 21 22 24 26 26 27 29 28 27 28 28 29 30 29
18 15 17 18 19 20 21 22 22 22 23 22 22 24 22 19 13 10 10 10 12 12 10 12 14 15 18 20 21 23 25 25 26 27 29 28 28 26 27 28 28 27 30
16 16 17 16 17 17 19 20 20 19 19 21 19 20 21 19 17 12 12 13 13 12 12 12 14 16 18 21 22 24 25 24 26 26 26 26 27 27 27 26 26 25 27
13 18 17 16 15 15 16 17 18 18 16 17 18 17 17 18 17 13 11 9 10 11 14 15 16 16 18 23 25 25 25 26 27 27 27 27 28 27 27 27 27 26 27
18 18 18 17 16 15 16 15 15 16 15 15 16 17 17 15 12 13 12 11 11 10 13 19 17 15 18 23 25 27 29 30 29 29 27 26 29 30 28 26 26 27 25
20 19 18 18 17 16 15 16 15 14 14 14 15 16 16 15 14 12 10 8 9 9 9 7 9 14 17 19 20 19 18 19 25 26 28 28 28 27 25 24 21 21 23
18 17 18 18 17 16 16 15 15 15 14 14 13 13 14 14 12 12 11 9 7 6 6 7 6 6 6 11 7 2 11 17 19 20 19 17 19 19 22 25 15 15 16
16 17 18 18 16 16 16 16 15 14 14 14 13 12 12 13 12 10 9 9 8 6 5 5 6 7 6 8 9 10 11 13 15 13 10 8 11 10 9 13 11 7 6
18 17 20 18 18 17 16 15 14 14 14 12 11 11 11 10 10 9 9 7 6 6 5 3 4 7 8 8 6 8 8 9 8 8 5 3 3 3 3 4 4 4 4
20 20 20 21 19 18 18 16 15 13 13 13 12 11 10 9 8 8 7 7 6 6 6 7 5 4 5 6 6 6 7 7 5 6 6 6 6 7 7 8 8 7 6
20 18 20 22 20 18 20 18 17 15 13 12 12 12 10 9 8 7 7 6 7 6 5 6 7 7 6 5 3 3 3 4 6 6 7 8 8 8 8 9 8 7 6
20 22 22 22 20 20 20 20 20 18 16 14 12 12 11 10 9 8 7 6 6 6 6 6 5 6 5 4 5 3 2 3 4 5 6 8 8 8 8 8 7 6 6
Wind_Direction
346 340 332 318 313 306 298 291 290 284 281 275 269 265 265 266 268 268 269 270 267 260 255 252 252 249 248 250 252 253 255 255 254 253 251 247 240 237 236 246 246 250 253
351 351 350 346 340 333 323 314 311 309 304 292 281 275 271 268 267 271 272 273 269 265 260 254 251 250 251 251 251 250 251 254 254 248 242 239 242 241 237 238 242 248 252
358 360 355 355 351 344 334 322 315 310 310 306 295 290 280 269 265 265 270 272 273 272 267 257 254 252 248 250 252 251 250 249 251 247 242 240 237 236 241 234 238 243 249
355 349 347 348 345 345 341 328 315 306 302 305 306 295 284 278 275 272 275 275 273 271 269 265 256 251 248 248 250 251 251 251 249 250 246 241 245 222 234 240 239 242 245
340 344 348 350 356 351 348 348 339 325 304 301 306 298 291 283 287 284 281 277 275 272 271 268 257 253 250 248 247 250 246 247 244 243 246 246 243 245 241 237 237 242 247
332 338 343 342 343 346 349 351 350 344 337 306 293 298 289 288 286 289 289 286 283 279 274 270 266 256 250 249 248 246 246 244 246 244 241 242 237 234 233 240 243 242 251
323 334 337 337 339 340 339 343 346 349 340 332 303 293 290 285 284 284 282 283 280 277 278 275 270 263 254 252 249 250 249 245 244 245 246 246 246 244 244 246 245 245 251
306 320 332 335 335 336 336 336 333 333 337 341 330 304 291 285 282 285 283 284 281 277 277 279 275 266 259 254 254 252 251 250 247 247 246 247 247 246 244 243 244 239 247
318 322 330 331 334 334 333 333 330 327 326 326 323 320 307 294 283 279 278 282 285 280 280 278 277 270 260 255 258 255 253 251 248 249 248 248 249 249 248 246 244 245 238
323 327 327 330 331 329 330 334 334 329 332 331 328 324 310 295 288 270 272 279 294 291 285 277 275 271 259 258 258 257 254 252 248 246 248 248 248 248 250 248 249 249 250
324 325 324 326 329 331 332 336 338 336 335 335 334 331 325 320 286 269 264 270 286 294 291 290 285 273 261 257 260 256 254 254 251 246 245 248 251 251 248 249 248 251 252
315 316 319 326 331 331 334 339 341 343 338 335 338 338 337 332 302 270 276 277 279 283 285 291 288 277 267 258 258 252 253 252 251 249 246 247 249 247 247 248 249 248 254
307 314 318 324 328 331 337 340 344 348 341 341 345 349 349 341 301 286 289 286 290 289 288 291 281 275 262 262 253 252 255 251 249 247 248 246 245 246 246 244 245 247 248
305 312 314 321 327 332 337 343 345 350 346 349 352 356 358 342 313 279 279 287 293 298 288 295 281 283 257 246 259 256 246 243 244 244 246 246 246 244 244 246 242 247 249
298 305 311 319 324 331 339 342 346 352 349 350 357 359 0 356 316 306 293 289 300 307 297 284 278 271 268 265 256 257 256 251 248 247 247 246 246 249 252 258 257 252 249
288 296 305 313 320 328 337 342 344 351 350 351 359 1 5 6 359 310 309 297 300 300 299 291 279 266 264 257 252 253 257 255 253 253 249 247 250 251 257 257 258 258 260
279 295 300 306 317 324 334 340 341 344 351 352 358 359 9 10 10 3 318 308 298 303 302 294 281 278 275 269 266 263 262 259 255 252 251 250 250 257 259 257 253 258 261
284 299 297 301 311 318 329 336 337 339 349 352 357 1 360 9 12 9 2 346 334 322 311 296 287 283 274 270 268 263 260 260 258 258 254 252 253 252 258 262 258 257 254
300 304 301 300 305 314 322 330 334 334 340 349 357 360 359 355 2 7 17 9 357 339 307 296 304 305 298 287 275 266 265 259 257 254 256 258 263 264 261 259 248 247 260
294 305 303 299 301 307 313 322 328 329 335 344 354 358 355 353 351 353 354 1 358 353 344 335 316 308 305 309 303 276 257 243 239 239 244 250 251 247 250 243 255 258 249
279 290 295 297 298 301 306 313 320 325 331 339 346 351 353 352 353 349 345 346 346 350 344 351 355 9 32 56 53 215 206 195 199 201 196 202 208 219 237 249 228 220 205
278 276 281 290 290 293 298 307 315 321 325 329 336 344 350 353 354 354 347 345 348 350 353 5 31 48 58 66 94 115 140 158 166 164 165 181 202 207 180 181 196 199 209
286 279 274 282 284 285 287 295 306 311 315 318 325 333 341 347 353 357 2 359 360 10 28 44 37 48 56 69 75 101 118 124 140 135 131 113 81 94 115 101 106 113 155
284 287 277 272 279 284 284 288 290 296 306 313 315 319 324 330 335 345 354 1 10 19 26 34 50 67 68 67 71 83 107 122 134 130 129 130 137 143 131 132 134 134 136
286 279 280 280 280 281 284 283 283 286 293 300 301 302 306 312 314 320 328 342 357 16 30 32 25 35 51 52 102 122 142 139 136 138 144 147 146 142 134 128 126 119 109
282 283 281 282 282 278 282 283 279 279 282 285 284 284 288 292 297 301 308 316 325 340 354 7 21 19 31 28 11 44 119 158 150 170 170 157 141 128 115 104 93 80 68